Miscellaneous Local Product
Issued by NWS North Platte, NE

Home | Current Version | Previous Version | Graphics & Text | Print | Product List | Glossary On
Versions: 1 2 3 4 5 6 7 8 9 10 11 12 13 14 15 16 17 18 19 20 21 22 23 24 25 26 27 28 29 30 31 32 33 34 35 36 37 38 39 40 41 42 43 44 45 46 47 48 49 50
000
AXUS43 KLBF 262110
MISLBF


WESTERN AND NORTH CENTRAL NEBRASKA HOURLY WEATHER ROUNDUP
NATIONAL WEATHER SERVICE NORTH PLATTE NE
400 PM CDT FRI AUG 26 2016

NOTE: "FAIR" INDICATES FEW OR NO CLOUDS BELOW 12,000 FEET WITH NO
SIGNIFICANT WEATHER AND/OR OBSTRUCTIONS TO VISIBILITY.

NOTE: STATIONS NOT REPORTING VARIABLES SUCH AS SKY/WEATHER OR
PRESSURE ARE PROVIDED BY RAWS AND APRS NETWORKS AND ARE NOT UNDER
NATIONAL WEATHER SERVICE QUALITY CONTROL.

...OBSERVATIONS IN AND NEAR THE EASTERN PANHANDLE OF NEBRASKA...

CITY           SKY/WX    TMP DP  RH WIND       PRES   REMARKS
PINE RIDGE     PTSUNNY   67  59  75 S13       30.06F
CHADRON        PTSUNNY   71  52  50 CALM      30.04F
ALLIANCE       SUNNY     68  52  56 SE13      30.09F
SIDNEY         CLOUDY    67  58  72 SE13      30.08F
CRESCENT LAKE    N/A     65  55  70 E6          N/A
$$

...OBSERVATIONS IN NORTHERN NEBRASKA AND FAR SOUTHERN SOUTH DAKOTA...

CITY           SKY/WX    TMP DP  RH WIND       PRES   REMARKS
WINNER         LGT RAIN  67  55  65 NE8       30.11F
VALENTINE      LGT RAIN  62  56  80 NW10      30.12F
THEDFORD       LGT RAIN  69  57  64 CALM      30.10F
AINSWORTH      CLOUDY    71  54  55 E5        30.10F
O`NEILL        CLOUDY    74  52  44 SE8       30.11S
ORD            CLOUDY    72  54  53 SE9       30.07F
BROKEN BOW     CLOUDY    70  56  61 SE10      30.08F
VALENTINE NWR    N/A     67  54  64 E6          N/A
BUTTE            N/A     71  55  56 NE3         N/A
HALSEY           N/A     72  49  44 SE6G14      N/A
EWING            N/A     72  61  67 CALM        N/A
$$

...OBSERVATIONS IN SOUTHWEST NEBRASKA AND FAR NORTHEAST COLORADO...

CITY           SKY/WX    TMP DP  RH WIND       PRES   REMARKS
WRAY           FAIR      77  54  44 SE7       30.05
HOLYOKE        LGT RAIN  61  55  82 NE12      30.09F
IMPERIAL       CLOUDY    66  60  81 N9        30.07F
OGALLALA       LGT RAIN  61  57  88 E7        30.09F
NORTH PLATTE   CLOUDY    73  55  53 E12       30.07F
MCCOOK         CLOUDY    74  55  51 CALM      30.06F
LEXINGTON      PTSUNNY   73  56  53 SE10      30.07F
STAPLETON        N/A     71  53  53 CALM        N/A
GOTHENBURG       N/A     71  52  51 E8          N/A
CALLAWAY         N/A     75  57  54 SE7         N/A
$$

...OBSERVATIONS IN CENTRAL LINCOLN COUNTY AREA...

CITY           SKY/WX    TMP DP  RH WIND       PRES   REMARKS
N.P. AIRPORT   CLOUDY    73  55  53 E12       30.07F
N.P. DOWNTOWN    N/A     71  58  63 CALM        N/A
N.P. SOUTHEAST   N/A     72  57  58 CALM        N/A
N.P. HILLCREST   N/A     71  57  61 SE3         N/A
$$

...SOME OBSERVATIONS FROM AROUND THE REGION...

CITY           SKY/WX    TMP DP  RH WIND       PRES   REMARKS
DENVER         CLOUDY    77  39  25 VRB5      30.07F
LARAMIE        CLOUDY    67  35  30 N10       30.15F
CHEYENNE       CLOUDY    61  50  67 E10       30.12F
SCOTTSBLUFF    SUNNY     70  53  54 E14       30.05F
RAPID CITY     MOSUNNY   66  55  67 S10G20    30.05F
BISMARCK       SUNNY     72  48  42 S21G30    30.05F
PIERRE         CLOUDY    61  54  77 E7        30.08F
SIOUX FALLS    CLOUDY    75  54  47 E5        30.12F
OMAHA          CLOUDY    71  64  78 E9        30.07F
GRAND ISLAND   CLOUDY    72  58  61 E9        30.08F
KANSAS CITY    PTSUNNY   82  67  60 SE8       30.01F
WICHITA        PTSUNNY   84  67  56 S9        30.01F
OKLAHOMA CITY  CLOUDY    93  66  40 W6        29.98F HX  96
DALLAS         CLOUDY    88  71  57 E12       29.96F HX  94
AMARILLO       MOSUNNY   82  59  45 SW15      30.07F
DODGE CITY     PTSUNNY   79  63  57 S9        30.03F
HAYS           CLOUDY    72  57  60 SE5       30.04F
GOODLAND       CLOUDY    64  59  83 SE12      30.06F
$$




USA.gov is the U.S. government's official web portal to all federal, state and local government web resources and services.